Temp
77 88 89 80 65 68 60 62 72 69 68 74 75 73 68 69 65 56 76 78 81 78 76 76 74 76 75 75 75 75 76 76 76 76 75 76 76 76 76 76 75 76 76 76 75 75 74 73 73
79 86 81 75 63 59 58 69 66 69 72 74 75 73 71 65 74 71 72 79 82 79 78 76 73 75 75 74 74 75 75 76 76 76 76 76 76 77 77 76 76 74 76 76 75 74 73 73 73
84 92 72 67 63 59 59 69 68 72 74 73 71 76 72 68 75 74 77 80 82 78 79 74 73 74 74 74 74 75 75 76 76 76 76 76 76 76 76 75 75 75 75 75 75 73 73 72 72
84 80 77 63 60 66 67 70 72 72 73 73 73 67 72 76 74 77 80 81 80 77 76 72 73 74 74 74 74 75 75 75 75 76 76 76 76 75 75 75 75 75 75 75 74 73 72 72 72
85 77 65 62 63 68 72 74 74 72 71 73 73 67 67 74 78 79 78 80 78 74 75 74 72 73 73 74 74 74 75 75 75 75 76 75 75 75 75 74 74 74 74 74 73 72 71 71 71
72 74 61 58 63 69 72 74 72 73 74 70 71 69 66 75 76 77 78 78 80 76 76 74 69 70 72 73 73 73 74 74 74 75 74 75 75 74 74 74 74 74 74 72 72 71 70 70 70
68 65 62 65 63 65 70 73 70 72 72 70 74 66 69 73 76 77 77 78 78 77 76 74 73 71 67 69 70 71 72 73 73 73 73 73 72 73 73 73 73 74 73 72 72 70 70 70 70
71 67 61 62 63 62 70 71 72 72 68 75 75 65 62 70 76 76 77 77 76 73 76 75 74 74 71 69 67 67 69 70 71 71 70 68 68 70 69 68 71 73 73 72 71 70 70 69 69
76 61 59 63 63 66 71 69 71 72 71 73 74 71 72 75 76 73 71 73 70 70 70 75 75 75 75 75 70 65 66 67 67 67 66 65 67 68 68 67 69 71 71 71 71 70 69 68 67
66 59 63 71 70 67 71 69 71 69 70 69 70 73 74 74 72 70 69 68 68 67 68 70 72 72 76 78 71 68 70 67 68 68 68 67 68 69 71 66 66 68 68 69 70 70 67 65 62
66 59 69 70 69 71 71 67 70 68 64 70 69 71 73 72 72 71 71 71 71 71 71 70 70 71 72 72 72 72 71 67 67 68 68 68 70 67 66 64 64 63 62 63 65 65 64 63 63
60 69 69 69 68 68 66 70 66 66 66 73 74 74 73 73 72 72 72 73 73 73 74 73 71 69 70 71 70 70 69 71 68 68 69 67 65 65 65 64 64 63 64 62 63 63 64 63 65
62 66 70 69 66 65 69 64 66 64 70 74 75 73 71 72 72 71 71 71 70 70 73 74 73 71 70 68 69 71 69 69 70 71 69 68 66 65 65 65 65 64 65 64 63 64 65 64 64
66 66 68 68 67 67 63 64 66 67 72 72 73 71 72 73 71 69 70 72 73 74 74 76 75 74 73 69 67 69 70 70 70 69 71 71 67 66 65 65 65 64 65 65 64 64 64 63 64
65 58 63 64 65 64 65 58 60 69 71 69 70 70 72 73 72 71 73 73 74 75 76 75 75 75 73 71 69 69 69 70 69 69 70 70 72 68 66 65 64 64 65 65 64 64 64 63 64
57 57 49 61 63 64 61 49 64 70 69 67 68 67 70 71 73 73 75 75 75 75 75 76 77 73 73 72 71 70 69 69 68 68 69 70 71 72 71 65 64 65 65 64 63 62 62 61 61
53 45 49 54 65 62 57 49 63 68 66 64 65 67 68 68 70 72 74 74 73 71 72 72 72 72 71 71 71 70 70 68 69 70 69 68 72 73 72 70 70 70 69 68 67 63 62 60 60
45 47 51 51 57 56 55 53 60 64 63 60 61 63 64 66 69 72 74 71 69 68 69 69 70 71 71 70 69 68 68 70 70 69 70 70 69 71 71 70 69 69 68 68 67 66 65 61 60
52 49 48 54 61 54 52 53 57 61 61 60 61 62 64 65 69 72 69 65 65 64 64 64 64 66 67 65 64 64 64 66 66 69 68 69 68 69 69 69 68 67 66 67 67 66 64 63 64
51 47 47 53 57 51 49 49 56 59 61 63 62 62 63 65 67 69 63 61 60 59 59 60 63 64 65 65 66 66 66 66 67 66 66 67 67 67 67 66 66 66 64 64 64 63 61 61 61
49 46 46 47 53 52 47 46 51 58 61 63 64 64 64 64 64 60 60 57 56 55 55 59 61 62 63 64 66 66 66 65 67 67 66 67 67 66 65 65 65 64 64 63 63 62 60 59 59
44 53 51 49 44 37 49 33 49 54 54 59 61 62 62 63 61 59 57 54 53 53 54 57 58 58 61 60 61 64 63 62 64 66 66 66 66 65 65 64 64 63 63 62 62 62 61 60 58
47 52 52 48 42 40 43 36 43 52 50 54 58 59 60 57 58 55 53 55 53 52 51 53 55 55 56 58 58 57 58 59 59 59 59 58 59 58 58 59 59 60 62 62 62 61 60 61 60
55 49 47 44 41 32 41 39 39 48 52 54 57 57 56 55 54 53 53 54 51 50 50 51 52 53 55 57 58 57 55 56 55 55 55 57 56 55 56 57 57 58 57 57 58 60 60 60 59
49 44 31 26 26 26 43 39 43 51 55 55 58 53 53 53 52 52 50 48 48 47 48 51 50 50 53 55 55 56 56 55 53 54 53 53 52 52 53 54 54 54 54 55 53 55 56 54 55
44 43 31 23 25 28 41 32 41 54 58 59 57 55 52 52 51 50 48 47 47 48 47 47 47 47 48 48 49 51 52 51 51 50 48 47 47 48 49 49 50 51 51 51 52 51 51 51 48
42 38 47 34 30 27 35 42 50 51 51 50 51 51 49 50 48 47 48 47 46 45 46 46 46 46 46 46 45 45 45 45 44 44 45 44 44 47 45 46 47 48 47 48 49 47 46 46 45
46 49 36 33 25 19 30 34 39 45 47 49 49 49 50 48 47 46 46 45 44 44 44 44 45 43 43 43 43 43 42 43 42 42 40 41 42 43 43 44 45 45 46 44 44 44 43 44 44
42 39 41 41 35 28 28 32 48 49 52 50 49 51 49 46 45 45 45 44 43 43 42 42 42 41 41 41 40 39 39 40 40 39 38 39 40 40 41 42 42 42 41 41 40 41 40 41 41
48 44 43 33 29 32 34 35 52 52 51 53 51 51 49 47 46 45 44 43 41 41 40 40 39 39 39 40 39 38 38 38 36 36 37 37 37 38 38 39 39 39 38 38 38 37 38 38 39
MSLP
1010.42 1009.39 1008.75 1008.82 1009.26 1008.57 1009.50 1010.32 1010.29 1010.64 1011.00 1011.47 1011.59 1011.58 1012.41 1013.01 1013.59 1015.11 1015.31 1015.53 1015.60 1016.38 1017.17 1017.64 1017.90 1018.06 1018.16 1018.47 1018.60 1018.70 1018.74 1018.79 1018.93 1019.03 1019.28 1019.53 1019.70 1019.87 1020.11 1020.27 1020.38 1020.48 1020.62 1020.65 1020.70 1020.80 1020.80 1020.85 1021.02
1010.24 1009.47 1008.82 1008.52 1008.72 1008.90 1010.03 1010.25 1010.88 1011.29 1011.52 1011.53 1011.61 1011.66 1012.22 1013.55 1013.91 1015.00 1015.49 1015.51 1015.55 1016.46 1017.10 1017.67 1018.06 1018.22 1018.31 1018.67 1018.85 1018.88 1018.92 1018.97 1019.12 1019.24 1019.41 1019.53 1019.77 1019.93 1020.15 1020.42 1020.46 1020.62 1020.60 1020.70 1020.87 1021.04 1021.04 1020.96 1021.17
1009.82 1008.96 1009.26 1008.43 1008.80 1009.48 1010.03 1010.47 1011.12 1011.54 1011.58 1011.46 1011.67 1012.03 1012.61 1013.95 1014.20 1014.79 1015.36 1015.50 1015.61 1016.42 1016.98 1017.67 1018.11 1018.32 1018.48 1018.78 1018.97 1019.11 1019.13 1019.17 1019.27 1019.37 1019.52 1019.62 1019.77 1019.97 1020.33 1020.59 1020.76 1020.87 1020.85 1020.88 1021.07 1021.29 1021.30 1021.20 1021.24
1009.36 1008.80 1008.64 1008.86 1009.46 1009.97 1010.11 1010.59 1011.05 1011.40 1011.58 1011.64 1011.70 1012.75 1013.83 1014.44 1014.42 1014.85 1015.50 1015.48 1015.88 1016.73 1017.36 1017.98 1018.27 1018.48 1018.66 1018.84 1018.93 1019.02 1019.21 1019.40 1019.55 1019.53 1019.70 1019.81 1019.90 1020.04 1020.25 1020.37 1020.65 1020.89 1021.06 1021.12 1021.27 1021.57 1021.64 1021.62 1021.57
1008.80 1008.83 1008.71 1009.04 1010.00 1010.35 1010.47 1010.61 1010.75 1011.14 1011.32 1011.68 1011.67 1013.15 1014.11 1014.84 1014.94 1015.24 1015.56 1015.69 1016.05 1017.08 1017.67 1018.15 1018.42 1018.61 1018.78 1018.94 1019.07 1019.18 1019.23 1019.32 1019.43 1019.66 1019.90 1020.10 1020.27 1020.34 1020.40 1020.58 1020.75 1020.96 1021.08 1021.19 1021.33 1021.57 1021.67 1021.71 1021.75
1009.45 1009.02 1009.13 1009.49 1010.28 1010.67 1010.81 1010.79 1010.83 1011.20 1011.49 1011.90 1011.98 1013.00 1014.64 1014.94 1015.07 1015.42 1015.66 1015.73 1015.91 1016.95 1017.62 1018.12 1018.60 1018.79 1018.96 1019.10 1019.17 1019.22 1019.27 1019.36 1019.48 1019.63 1019.83 1019.91 1020.11 1020.39 1020.43 1020.50 1020.72 1020.94 1021.08 1021.30 1021.43 1021.54 1021.64 1021.69 1021.73
1010.32 1010.00 1009.92 1009.74 1010.42 1010.89 1011.10 1011.07 1011.07 1011.27 1011.57 1012.16 1012.15 1013.22 1014.57 1015.04 1015.39 1015.49 1015.69 1015.91 1016.17 1016.80 1017.44 1018.01 1018.43 1018.86 1019.10 1019.24 1019.35 1019.40 1019.41 1019.46 1019.57 1019.67 1019.79 1019.85 1020.08 1020.30 1020.51 1020.61 1020.61 1020.79 1020.96 1021.09 1021.22 1021.39 1021.52 1021.61 1021.71
1011.03 1010.80 1010.49 1010.23 1010.49 1011.17 1011.42 1011.49 1011.71 1011.75 1012.15 1012.34 1012.51 1013.29 1014.72 1015.21 1015.50 1015.64 1015.72 1016.04 1016.52 1017.07 1017.35 1017.74 1018.06 1018.47 1018.84 1019.18 1019.41 1019.56 1019.60 1019.61 1019.65 1019.69 1019.82 1019.88 1020.00 1020.14 1020.31 1020.48 1020.52 1020.58 1020.84 1021.05 1021.15 1021.25 1021.35 1021.44 1021.51
1011.45 1011.40 1010.92 1010.69 1010.82 1011.39 1011.64 1011.73 1012.13 1012.21 1012.29 1012.57 1013.09 1013.75 1014.68 1015.15 1015.45 1015.78 1016.00 1016.32 1016.89 1017.34 1017.62 1017.45 1017.72 1017.94 1018.16 1018.49 1018.87 1019.30 1019.53 1019.63 1019.67 1019.67 1019.76 1019.90 1019.97 1020.06 1020.23 1020.38 1020.39 1020.42 1020.60 1020.81 1020.97 1021.13 1021.24 1021.31 1021.38
1011.94 1011.64 1011.54 1011.45 1011.49 1011.74 1012.02 1012.01 1012.14 1012.37 1012.47 1012.87 1013.67 1014.29 1014.81 1015.14 1015.37 1015.67 1015.96 1016.30 1016.70 1017.24 1017.43 1017.56 1017.43 1017.58 1017.66 1017.82 1018.30 1018.87 1019.06 1019.30 1019.42 1019.44 1019.50 1019.79 1019.75 1019.73 1019.81 1020.00 1020.22 1020.46 1020.60 1020.70 1020.83 1020.99 1021.18 1021.39 1021.36
1012.25 1012.17 1012.01 1012.20 1012.42 1012.46 1012.53 1012.58 1012.49 1012.35 1012.48 1012.63 1013.27 1014.06 1014.55 1014.78 1015.06 1015.27 1015.51 1015.56 1015.85 1016.21 1016.74 1017.14 1017.30 1017.28 1017.34 1017.54 1017.81 1018.19 1018.44 1018.84 1018.92 1019.03 1019.19 1019.33 1019.43 1019.50 1019.61 1019.81 1020.12 1020.38 1020.52 1020.72 1020.77 1020.90 1021.05 1021.14 1021.03
1012.99 1012.54 1012.47 1012.80 1013.04 1013.10 1013.10 1012.97 1012.91 1012.74 1013.11 1012.90 1013.23 1013.71 1014.14 1014.43 1014.51 1014.67 1014.82 1015.09 1015.33 1015.63 1015.96 1016.39 1016.65 1017.07 1017.10 1017.09 1017.19 1017.35 1017.71 1017.94 1018.37 1018.54 1018.67 1018.91 1019.16 1019.28 1019.35 1019.53 1019.71 1019.95 1020.05 1020.30 1020.32 1020.44 1020.47 1020.58 1020.51
1013.27 1013.11 1012.90 1013.22 1013.56 1013.49 1013.52 1013.52 1013.39 1013.04 1013.00 1013.07 1013.44 1013.97 1014.04 1014.02 1014.16 1014.32 1014.44 1014.64 1014.92 1015.22 1015.38 1015.63 1016.02 1016.42 1016.69 1016.89 1016.74 1016.67 1016.85 1017.14 1017.40 1017.81 1018.07 1018.35 1018.71 1018.90 1018.94 1019.09 1019.16 1019.22 1019.33 1019.54 1019.75 1019.78 1019.88 1019.98 1020.02
1013.34 1013.52 1013.38 1013.42 1013.86 1013.81 1014.04 1013.93 1013.71 1013.35 1013.18 1013.26 1013.37 1013.66 1013.80 1013.76 1013.99 1014.20 1014.32 1014.56 1014.67 1014.89 1015.06 1015.04 1015.22 1015.31 1015.72 1016.32 1016.66 1016.66 1016.39 1016.40 1016.69 1016.99 1017.27 1017.66 1018.08 1018.39 1018.49 1018.61 1018.72 1018.79 1018.77 1018.87 1019.07 1019.28 1019.45 1019.59 1019.61
1013.99 1014.39 1013.95 1013.84 1014.07 1014.13 1014.09 1014.31 1013.75 1013.37 1013.18 1013.44 1013.52 1013.52 1013.48 1013.51 1013.71 1014.01 1014.14 1014.11 1014.17 1014.26 1014.20 1014.38 1014.47 1014.44 1015.02 1015.51 1015.84 1016.21 1016.43 1016.25 1016.26 1016.46 1016.67 1016.89 1017.22 1017.72 1017.98 1018.20 1018.33 1018.39 1018.42 1018.47 1018.58 1018.70 1018.81 1019.06 1019.09
1014.77 1014.98 1014.70 1014.10 1014.22 1014.27 1014.69 1013.97 1013.54 1013.15 1013.13 1013.23 1013.40 1013.29 1013.28 1013.26 1013.52 1013.75 1013.71 1013.74 1013.77 1013.69 1013.70 1013.70 1013.97 1014.26 1014.40 1014.60 1014.85 1015.44 1015.86 1016.14 1016.11 1016.01 1016.12 1016.26 1016.50 1016.92 1017.40 1017.85 1017.86 1017.82 1017.94 1018.12 1018.41 1018.70 1018.81 1018.77 1018.70
1015.32 1015.04 1014.86 1014.38 1013.84 1014.16 1014.55 1014.14 1013.62 1013.04 1012.93 1013.18 1013.19 1013.25 1013.12 1013.11 1013.20 1013.37 1013.37 1013.49 1013.47 1013.60 1013.74 1013.93 1013.98 1014.06 1014.20 1014.26 1014.19 1014.44 1014.99 1015.46 1015.54 1015.58 1015.81 1015.98 1016.00 1016.22 1016.69 1016.99 1017.12 1017.28 1017.41 1017.60 1017.93 1018.19 1018.34 1018.45 1018.34
1015.47 1015.46 1015.07 1014.32 1013.92 1014.07 1014.35 1014.15 1014.10 1013.64 1013.39 1013.42 1013.30 1013.32 1013.31 1013.21 1013.25 1013.32 1013.29 1013.41 1013.63 1013.88 1014.09 1014.25 1014.27 1014.23 1014.16 1014.02 1013.94 1014.05 1014.28 1014.42 1014.68 1015.00 1015.23 1015.63 1015.88 1015.87 1016.17 1016.48 1016.74 1016.85 1017.11 1017.21 1017.39 1017.65 1017.84 1017.93 1017.92
1015.73 1015.55 1015.18 1014.47 1014.27 1014.63 1014.83 1014.62 1014.21 1013.86 1013.42 1013.30 1013.36 1013.23 1013.20 1013.18 1013.03 1013.30 1013.56 1013.93 1014.28 1014.68 1014.93 1015.10 1015.10 1014.77 1014.43 1014.16 1013.99 1013.99 1014.03 1014.12 1014.17 1014.37 1014.69 1015.16 1015.62 1015.75 1015.70 1015.88 1016.23 1016.49 1016.79 1016.90 1017.16 1017.33 1017.56 1017.62 1017.65
1016.02 1015.92 1015.66 1015.12 1014.88 1015.31 1015.41 1015.12 1014.55 1014.03 1013.27 1012.91 1012.91 1012.88 1012.95 1013.09 1013.23 1013.41 1014.04 1014.52 1015.14 1015.60 1015.94 1015.85 1015.49 1015.02 1014.64 1014.20 1013.71 1013.50 1013.62 1013.76 1013.86 1014.04 1014.43 1014.88 1015.26 1015.41 1015.52 1015.75 1015.89 1016.18 1016.52 1016.70 1016.87 1017.15 1017.44 1017.42 1017.46
1015.84 1016.06 1016.20 1016.07 1015.76 1015.73 1016.08 1014.92 1014.01 1012.47 1012.02 1012.32 1012.22 1012.48 1012.71 1013.05 1013.60 1014.11 1014.50 1015.20 1015.83 1016.41 1016.59 1016.34 1015.80 1015.27 1014.77 1014.34 1013.64 1013.38 1013.38 1013.63 1013.80 1014.11 1014.36 1014.47 1014.64 1014.98 1015.22 1015.41 1015.63 1015.95 1016.25 1016.47 1016.60 1016.71 1016.98 1017.10 1017.10
1015.73 1016.13 1016.45 1016.65 1016.88 1016.75 1016.51 1014.65 1013.19 1012.25 1011.60 1011.53 1011.76 1012.16 1012.57 1013.10 1013.90 1014.52 1015.15 1016.06 1016.84 1017.13 1017.01 1016.62 1016.31 1016.00 1015.43 1014.84 1014.18 1013.68 1013.81 1014.22 1014.23 1014.20 1014.43 1014.51 1014.78 1015.04 1015.24 1015.29 1015.33 1015.66 1016.00 1016.18 1016.32 1016.43 1016.55 1016.68 1016.67
1015.76 1016.04 1016.40 1016.92 1017.37 1017.69 1017.23 1016.54 1012.87 1011.72 1011.60 1011.57 1011.56 1011.90 1012.47 1013.44 1014.16 1015.18 1015.95 1016.76 1017.33 1017.55 1017.51 1017.08 1016.76 1016.49 1016.03 1015.45 1015.08 1014.77 1014.95 1015.17 1015.45 1015.51 1015.37 1015.78 1016.02 1016.34 1016.37 1016.09 1016.04 1015.98 1015.93 1015.97 1016.04 1016.13 1016.21 1016.22 1016.21
1016.00 1016.79 1017.28 1017.66 1018.20 1017.62 1017.20 1016.72 1012.43 1012.01 1011.19 1011.03 1011.41 1012.17 1013.00 1013.93 1014.76 1015.74 1016.63 1017.18 1017.82 1018.06 1018.02 1017.69 1017.31 1017.14 1016.62 1016.19 1015.93 1015.81 1016.00 1016.12 1016.14 1016.25 1016.36 1016.66 1016.94 1017.13 1017.05 1016.91 1016.71 1016.78 1016.76 1016.76 1016.71 1016.48 1016.34 1016.22 1016.26
1016.15 1017.04 1017.98 1018.72 1018.70 1017.19 1016.10 1016.00 1012.09 1011.26 1010.77 1010.67 1011.23 1012.46 1013.40 1014.28 1015.18 1016.14 1017.01 1017.65 1018.31 1018.48 1018.50 1018.37 1018.07 1017.74 1017.40 1017.05 1016.94 1016.74 1016.72 1016.86 1017.09 1017.34 1017.64 1017.74 1017.94 1018.11 1018.07 1017.77 1017.63 1017.69 1017.64 1017.39 1017.43 1017.25 1017.16 1017.32 1017.24
1015.78 1016.62 1016.91 1017.67 1017.82 1016.93 1016.01 1013.89 1011.69 1010.75 1010.44 1010.78 1011.35 1012.43 1013.55 1014.59 1015.53 1016.51 1017.36 1018.00 1018.37 1018.70 1018.82 1018.89 1018.83 1018.54 1018.19 1018.07 1018.08 1017.99 1017.84 1018.05 1018.35 1018.56 1018.77 1019.01 1019.17 1019.17 1019.12 1018.87 1018.47 1018.32 1018.41 1018.23 1017.99 1018.10 1018.23 1018.11 1018.08
1015.50 1015.95 1016.40 1017.11 1017.37 1017.17 1015.44 1013.04 1011.64 1010.78 1010.67 1011.26 1011.99 1012.97 1013.96 1015.00 1015.96 1016.99 1017.54 1018.06 1018.60 1018.95 1019.16 1019.24 1019.39 1019.45 1019.20 1018.95 1018.95 1019.02 1019.09 1019.22 1019.50 1019.67 1019.68 1019.78 1019.87 1019.74 1019.72 1019.42 1019.37 1019.25 1019.07 1018.88 1018.86 1018.83 1019.17 1018.98 1018.96
1014.82 1015.60 1016.56 1017.12 1017.54 1016.70 1014.47 1013.01 1010.85 1010.56 1010.91 1011.34 1012.14 1012.80 1013.77 1014.90 1015.89 1016.80 1017.44 1018.16 1018.80 1019.20 1019.45 1019.65 1019.82 1020.02 1019.97 1019.81 1019.75 1019.79 1019.77 1019.93 1020.11 1020.36 1020.45 1020.50 1020.46 1020.37 1020.17 1020.13 1020.06 1020.01 1019.74 1019.98 1019.71 1019.89 1019.98 1019.92 1019.84
1014.81 1015.30 1015.63 1016.11 1016.65 1015.44 1013.87 1011.64 1009.84 1009.66 1009.61 1010.50 1011.47 1012.38 1013.33 1014.50 1015.42 1016.38 1017.25 1018.15 1018.85 1019.35 1019.73 1019.95 1020.12 1020.43 1020.48 1020.41 1020.38 1020.32 1020.39 1020.54 1020.73 1020.92 1021.11 1021.04 1021.06 1020.97 1020.91 1020.77 1020.70 1020.57 1020.55 1020.80 1020.75 1020.58 1020.39 1020.62 1020.55
1013.94 1014.11 1014.75 1014.84 1015.25 1015.22 1014.16 1010.86 1009.82 1009.59 1009.80 1010.08 1011.07 1012.06 1012.95 1013.98 1015.06 1016.37 1017.38 1018.24 1018.94 1019.44 1019.80 1020.15 1020.34 1020.45 1020.63 1020.81 1020.93 1020.97 1021.12 1021.26 1021.38 1021.51 1021.52 1021.53 1021.61 1021.45 1021.23 1021.02 1021.06 1021.23 1021.38 1021.19 1021.11 1021.28 1021.21 1021.17 1020.93
Wind_Speed
18 12 5 3 2 2 6 3 8 7 9 8 6 6 13 11 6 4 6 3 12 12 11 9 10 10 12 8 6 5 4 10 11 13 12 10 9 9 8 9 9 7 5 7 10 12 12 8 9
9 9 2 5 2 5 4 8 10 9 7 4 6 1 8 10 9 8 7 3 11 12 11 10 9 8 10 8 5 5 5 9 10 9 11 12 8 7 6 7 6 8 6 7 9 10 12 6 10
13 9 2 3 4 6 7 11 8 8 4 4 5 8 7 5 8 5 9 6 9 11 8 11 10 9 10 7 5 4 4 5 5 7 10 9 10 8 8 5 6 4 5 6 7 8 10 8 9
5 2 4 1 10 7 10 9 10 6 6 1 3 9 7 8 4 6 8 7 9 11 10 10 9 8 8 7 7 6 5 2 2 7 9 9 10 11 8 7 6 4 3 1 3 7 8 9 5
4 4 3 5 9 5 9 6 5 7 5 5 4 7 7 6 8 8 7 7 10 11 9 8 8 8 7 7 6 6 5 5 2 6 6 7 7 9 8 6 6 4 2 2 1 3 5 6 6
4 1 3 5 9 5 7 4 1 9 9 3 6 9 4 5 8 7 7 6 8 12 8 9 7 6 5 5 5 5 6 5 4 5 4 9 9 8 9 10 7 5 3 3 1 1 2 2 3
5 4 5 6 10 5 7 2 4 6 7 6 4 7 7 8 7 6 6 8 7 11 8 6 8 6 4 4 5 4 5 5 5 5 3 3 9 9 7 7 9 8 7 7 5 3 1 1 1
3 3 2 4 7 6 5 3 3 7 5 3 5 4 5 7 7 6 6 7 8 7 4 6 5 8 7 6 7 6 5 6 5 5 4 5 7 7 7 7 9 9 9 9 8 7 6 4 4
4 3 3 3 3 8 5 5 2 1 4 5 5 7 7 9 7 6 5 5 7 4 2 4 6 6 7 8 9 8 6 6 6 6 6 5 4 6 7 8 8 10 10 9 10 9 8 7 6
3 2 5 8 9 5 6 4 6 5 6 7 8 8 9 8 7 8 6 6 7 7 7 6 5 6 5 5 7 7 7 5 5 5 6 5 6 6 9 9 9 8 8 7 9 10 9 6 4
3 3 7 8 8 8 5 1 3 4 2 5 11 10 8 8 8 7 8 6 8 9 8 9 7 6 6 5 4 5 4 4 4 7 6 6 5 4 3 3 3 4 6 4 5 5 4 6 5
2 7 2 5 4 1 1 4 3 2 4 5 9 7 7 8 7 8 7 8 8 6 8 10 9 7 6 3 5 5 5 4 4 5 7 5 3 3 3 3 5 5 4 6 5 4 6 8 7
5 10 3 6 2 2 2 4 6 3 2 5 5 4 6 4 4 3 2 0 0 2 5 8 10 11 8 6 4 5 5 6 5 5 6 5 4 4 4 4 4 4 5 5 5 5 6 6 7
3 6 8 5 5 4 2 6 6 6 9 7 6 7 9 6 4 2 3 5 7 7 7 7 8 9 10 10 7 5 4 6 7 6 6 8 5 5 5 5 5 5 4 5 5 5 5 4 5
3 5 7 5 4 6 4 8 10 9 7 7 9 9 9 8 5 7 7 6 5 5 7 7 9 8 8 11 10 7 6 4 5 5 7 7 9 7 6 5 5 5 5 6 5 4 4 4 4
4 6 7 8 10 5 7 8 10 13 14 11 10 7 9 6 8 8 8 7 7 7 8 6 3 6 8 7 9 8 7 7 5 4 4 8 8 9 8 5 5 5 5 4 4 4 4 5 5
7 5 11 9 10 10 10 4 7 10 4 8 8 8 6 6 6 7 7 9 7 4 6 5 5 6 5 7 5 6 11 9 8 5 5 5 7 10 9 8 7 6 5 5 5 5 4 4 5
7 11 12 10 5 3 8 9 9 8 5 6 7 8 8 8 9 6 10 3 9 9 9 8 6 7 7 5 5 4 4 7 8 7 8 8 6 6 8 7 7 6 5 6 6 7 5 5 5
10 9 8 7 9 6 8 9 10 9 9 10 10 9 9 9 8 7 5 8 9 9 9 9 9 9 6 3 3 3 4 3 4 7 8 9 8 9 6 7 7 5 5 7 7 5 7 6 4
12 12 10 7 5 2 5 11 15 14 15 14 10 9 9 8 8 5 8 9 8 8 8 8 7 8 7 5 4 4 4 4 3 4 6 7 8 9 7 4 5 5 4 5 6 5 3 2 2
13 14 8 7 6 5 4 15 20 17 23 16 11 9 7 8 8 5 8 9 9 8 7 7 7 8 8 10 5 3 1 1 1 3 5 8 10 9 8 6 4 4 3 3 5 4 5 6 3
15 10 13 11 6 6 6 8 12 7 3 8 13 13 10 8 6 7 8 8 7 6 7 7 7 9 10 11 9 4 3 3 1 3 5 3 1 2 2 4 4 4 3 4 4 4 5 5 5
6 5 9 8 6 6 12 7 6 11 9 8 8 8 9 9 8 8 8 7 6 5 5 6 7 7 8 9 9 7 9 6 5 6 9 10 9 11 9 8 9 8 3 3 4 4 5 6 6
6 3 3 1 2 9 12 11 8 11 11 9 5 8 9 8 8 9 7 6 6 5 5 6 6 7 9 10 11 11 11 8 7 9 8 7 7 7 11 10 9 9 8 8 8 8 6 5 4
5 9 2 2 3 7 9 13 15 8 4 0 11 9 8 7 8 7 7 6 5 5 6 5 7 7 9 11 12 10 11 11 11 9 7 8 7 7 10 10 9 8 9 9 8 9 10 9 9
14 13 6 8 6 4 13 11 7 6 8 8 8 9 9 8 7 7 7 6 6 5 6 6 7 7 7 8 11 11 12 8 8 9 7 7 6 6 9 9 9 10 11 10 8 7 8 10 10
11 19 13 6 2 2 6 6 9 6 5 6 7 7 8 8 8 7 7 6 6 6 5 6 6 6 7 7 8 8 8 9 8 9 8 6 7 8 8 8 9 10 10 10 9 9 9 9 9
6 6 9 3 4 5 7 8 12 4 7 8 8 10 9 9 9 8 7 7 5 5 5 6 6 6 6 7 6 6 7 7 7 7 8 7 7 7 8 8 9 9 10 11 10 8 10 9 8
10 6 6 5 7 5 5 6 3 6 12 14 11 8 9 9 8 8 7 7 6 5 5 5 5 6 5 5 5 6 6 6 7 7 7 6 6 7 8 8 9 9 12 12 10 10 11 11 9
16 16 15 7 9 5 12 18 5 7 4 6 8 7 8 9 9 8 8 8 7 6 5 5 5 6 5 5 5 6 6 6 6 6 7 7 7 7 8 8 9 11 11 11 11 11 10 9 10
Wind_Direction
304 313 300 291 280 108 79 71 89 62 84 58 45 27 81 52 20 64 95 128 123 121 123 143 141 141 129 128 136 140 104 138 125 117 112 103 106 103 92 80 67 71 71 72 59 49 34 103 96
300 299 298 269 261 100 82 103 75 74 76 140 83 245 85 74 78 119 115 187 123 130 143 134 141 143 123 125 144 141 121 129 127 123 128 124 123 111 102 89 97 72 89 91 60 44 32 109 105
279 271 261 269 50 35 106 90 97 98 54 7 120 51 29 39 41 84 103 154 121 125 122 129 141 134 119 139 152 146 126 133 114 133 144 133 136 128 116 104 84 61 43 44 66 40 30 50 110
305 246 259 278 85 53 86 92 117 125 111 9 310 95 86 26 60 75 129 146 124 112 115 129 136 129 137 156 162 162 157 135 58 153 156 156 147 142 147 139 114 119 100 50 26 41 32 31 112
275 256 265 85 73 73 76 85 108 90 89 64 83 76 89 71 98 116 131 150 120 116 127 135 135 137 152 162 169 171 173 156 139 159 173 167 163 158 149 137 141 160 150 99 63 35 41 36 37
297 215 282 151 114 87 90 91 72 83 106 143 103 103 80 138 112 117 137 146 117 132 138 135 139 153 165 179 186 189 178 177 155 133 113 182 181 181 169 167 163 176 194 165 168 74 55 47 45
331 337 341 70 118 145 105 20 5 96 113 38 329 92 125 105 108 126 151 126 121 120 135 146 158 167 183 202 214 218 188 200 199 210 146 195 180 185 199 196 162 183 214 191 188 196 207 251 265
325 299 328 354 139 109 107 107 357 6 73 140 348 109 117 123 122 132 142 125 119 88 132 155 167 168 176 184 214 233 228 219 232 242 174 166 184 194 200 207 200 195 200 206 202 205 207 219 235
308 288 241 151 25 105 133 155 17 328 127 68 64 69 107 120 135 131 138 129 93 108 224 200 181 194 185 182 184 197 227 242 256 253 216 192 198 197 206 210 215 207 203 210 212 214 220 219 228
290 295 22 11 49 69 82 338 131 206 143 136 109 107 122 148 161 154 172 178 165 188 191 226 230 202 212 192 146 181 195 200 214 223 217 202 229 193 203 201 197 207 220 227 226 216 220 231 246
246 247 37 79 43 11 57 247 21 281 180 107 149 138 156 163 172 178 192 200 184 191 176 184 208 254 195 189 179 182 188 189 205 212 211 203 218 239 197 148 181 202 221 230 231 219 213 219 230
281 263 8 90 69 189 235 17 287 282 102 57 76 97 154 181 185 191 198 189 183 188 183 182 181 197 252 231 189 187 181 193 191 210 208 201 208 224 213 188 199 190 203 206 222 198 208 215 239
201 280 177 84 107 260 28 264 261 297 237 132 124 168 250 200 191 173 189 154 112 210 202 192 177 186 196 229 249 198 195 189 195 201 203 191 205 209 204 217 210 201 197 200 208 207 214 215 216
242 292 260 195 202 201 244 258 247 223 246 244 192 217 231 199 209 245 182 213 192 201 213 216 201 191 184 193 213 260 221 193 195 200 196 193 195 208 208 210 212 214 209 211 207 210 224 235 227
350 281 282 259 204 257 205 259 250 239 223 218 207 220 231 218 198 214 235 225 219 221 219 210 207 204 197 188 193 206 251 266 203 192 199 196 195 207 220 210 210 207 211 220 221 228 220 226 237
209 237 252 207 208 193 143 250 250 227 224 230 242 245 241 186 208 224 229 235 242 237 222 223 222 214 213 204 187 198 207 234 260 213 207 203 207 202 218 228 220 211 206 204 205 213 230 228 218
207 243 220 245 227 196 177 260 272 259 246 222 224 255 258 248 243 235 252 253 255 40 23 348 334 289 247 223 212 193 194 205 221 209 218 251 219 210 220 230 230 224 222 219 210 217 202 226 230
216 216 243 257 212 196 246 238 235 269 249 250 259 272 288 283 268 282 274 32 51 33 10 349 326 301 288 259 208 212 211 198 200 205 198 217 249 250 211 226 227 228 232 231 230 233 228 219 223
269 277 285 245 245 178 227 261 274 278 273 223 223 231 240 252 271 260 59 59 43 29 11 357 342 322 310 288 222 207 211 224 210 187 183 193 211 248 227 213 220 221 223 234 238 244 236 246 245
242 259 265 290 314 97 295 273 274 265 261 253 245 248 251 257 277 290 76 63 47 31 13 345 322 310 302 295 262 196 190 213 199 169 167 184 205 226 258 245 212 206 213 234 230 229 253 257 186
231 240 248 259 292 209 277 270 251 248 240 247 245 237 238 245 264 75 70 63 47 26 358 334 333 333 341 332 290 280 208 355 34 173 207 204 200 209 223 233 229 219 216 226 229 223 214 252 231
232 213 236 248 241 245 196 282 298 277 246 220 219 228 219 225 118 88 68 59 48 14 354 348 17 11 1 358 355 278 178 195 275 352 37 79 3 253 326 270 231 218 218 227 233 231 232 222 245
237 294 254 224 250 272 258 279 263 230 258 242 205 200 202 110 107 97 89 87 70 32 9 358 30 23 14 26 28 37 56 53 45 48 58 54 50 45 33 32 32 21 330 263 239 242 237 243 256
164 86 45 357 258 246 228 231 227 233 211 218 195 128 122 118 105 97 95 93 72 34 24 15 39 33 31 35 40 52 59 52 54 44 46 48 42 33 30 21 24 26 19 15 9 351 305 271 253
221 160 180 224 217 234 203 208 244 303 328 25 184 135 125 124 128 131 121 91 71 47 31 36 36 37 36 43 40 42 55 57 53 53 48 43 41 30 22 18 24 26 22 25 8 20 30 16 19
203 202 175 198 198 231 205 236 243 208 245 169 130 147 138 139 125 122 128 125 103 70 46 50 41 36 39 47 44 37 39 50 47 42 46 46 31 34 21 16 27 31 31 23 21 27 26 26 27
188 215 214 328 150 124 241 262 304 167 169 132 138 138 154 159 140 149 137 121 109 92 65 60 61 49 35 50 54 47 42 49 51 44 45 47 34 34 24 23 30 33 32 26 27 47 27 29 26
186 152 201 205 239 232 242 246 240 203 186 193 193 188 177 150 152 150 144 128 112 111 93 72 72 69 49 51 52 55 52 53 58 53 45 40 42 34 33 32 42 37 41 39 35 39 25 28 25
198 208 216 183 212 211 247 236 196 237 213 190 203 188 169 160 158 155 147 135 128 113 100 92 79 76 56 67 60 62 57 53 56 56 44 39 43 33 36 39 45 40 50 37 34 36 33 34 23
217 214 205 204 219 247 259 260 43 100 94 155 172 173 162 157 159 154 143 144 155 148 131 118 101 96 67 65 67 57 53 60 64 59 54 37 46 44 48 51 50 53 45 39 39 32 28 28 30